Regional Weather Roundup
Issued by NWS

Home | Current Version | Previous Version | Graphics & Text | Print | Product List | Glossary On
Versions: 1 2 3 4 5 6 7 8 9 10 11 12 13 14 15 16 17 18 19 20 21 22 23 24 25 26 27 28 29 30 31 32 33 34 35 36 37 38 39 40 41 42 43 44 45 46 47 48 49 50
000
ASUS43 KLOT 282309
RWRIL

ILLINOIS REGIONAL WEATHER ROUNDUP
NATIONAL WEATHER SERVICE CHICAGO/ROMEOVILLE IL
600 PM CDT WED JUN 28 2017

NOTE: "FAIR" INDICATES FEW OR NO CLOUDS BELOW 12,000 FEET WITH NO
SIGNIFICANT WEATHER AND/OR OBSTRUCTIONS TO VISIBILITY.

* THESE STATIONS ARE NOT UNDER NWS QUALITY CONTROL. THEY ALSO MAY NOT
  REPORT WEATHER SUCH AS PRECIPITATION OR FOG.

ILZ001-002-007-009-015-016-024-290000-
NORTHWEST ILLINOIS

CITY           SKY/WX    TMP DP  RH WIND       PRES   REMARKS
MOLINE         CLOUDY    82  68  62 S13G21    29.72F HX  85
STERLING*      MOSUNNY   78  69  73 S9        29.75F HX  80
SAVANNA*       PTSUNNY   78  69  74 S16G24    29.71F HX  80
$$

ILZ003-004-008-010-011-017-018-290000-
NORTH CENTRAL ILLINOIS

CITY           SKY/WX    TMP DP  RH WIND       PRES   REMARKS
ROCKFORD       PTSUNNY   77  67  71 S15G23    29.77F
FREEPORT*      PTSUNNY   75  67  76 S16G25    29.75F
ROCHELLE*      CLOUDY    76  67  74 S18G24    29.77F
DE KALB*       CLOUDY    73  66  78 S16       29.79F
PERU*          MOSUNNY   79  66  64 S17       29.78F HX  81
$$

ILZ005-006-012>014-019>023-290000-
NORTHEAST ILLINOIS

CITY           SKY/WX    TMP DP  RH WIND       PRES   REMARKS
CHICAGO-OHARE  CLOUDY    78  61  55 S23G32    29.79F HX  80
CHICAGO-MIDWAY LGT RAIN  76  63  64 S15G29    29.78F
AURORA         CLOUDY    74  66  76 S17G28    29.79F
LANSING*       CLOUDY    79  57  47 S20G25    29.87S HX  80
JOLIET*        LGT RAIN  76  65  67 S13       29.81F
WAUKEGAN       CLOUDY    75  65  70 S16       29.76F
DUPAGE AIRPORT CLOUDY    76  65  68 S21G31    29.77F
WHEELING       CLOUDY    78  63  59 S21G35    29.79F HX  80
MORRIS*        CLOUDY    76  65  67 S16       29.79F
ROMEOVILLE*    LGT RAIN  73  62  69 S17       29.79F
$$

LMZ740>746-290000-
SOUTHERN LAKE MICHIGAN

STATION/POSITION SKY/WX   TEMP    WIND        PRES    VSBY  WAVE
                          AIR SEA DIR/SP/G                  HT/PER
                          (F)     (DEG/KT/KT) (MB)    (MI)  (FT/S)
SOUTHERN BUOY              66 60  160/ 21/ 23 1008.1F         4/ 5
WILMETTE HARBOR            76 62  200/ 19/ 29   N/A           3/ 4
HARRISON CRIB              80     200/ 34/ 37   N/A
BURNHAM HARBOR             77                   N/A
CALUMET HARBOR             80     180/ 11/ 16 1010.0F
BURNS HARBOR               79     180/ 21/ 28 1011.5R
MICHIGAN CITY              78     170/ 18/ 26   N/A
MICHIGAN CITY 6N           75 66  190/ 17/ 27   N/A           2/ 3
ST. JOSEPH                 74 67  190/ 16/ 21 1010.8          3/ 3
$$

ILZ025>027-034>036-040-047-049-050-058-095>099-290000-
WEST-CENTRAL ILLINOIS

CITY           SKY/WX    TMP DP  RH WIND       PRES   REMARKS
QUINCY         SUNNY     87  66  49 S18G25    29.77F HX  89
GALESBURG*     PTSUNNY   82  68  62 S15G21    29.76F HX  85
MACOMB*        MOSUNNY   84  64  50 S17G26    29.78F HX  85
JACKSONVILLE*  SUNNY     85  63  48 S17G24    29.81F HX  86
PITTSFIELD*    SUNNY     86  65  48 S16       29.80F HX  87
$$

ILZ028>032-037-038-041>044-048-051>054-059>061-290000-
CENTRAL ILLINOIS

CITY           SKY/WX    TMP DP  RH WIND       PRES   REMARKS
PONTIAC        MOSUNNY   83  64  51 S20G29    29.84F HX  84
BLOOMINGTON    SUNNY     82  65  56 S22G29    29.84F HX  84
DECATUR        SUNNY     83  60  45 S20G28    29.88F HX  83
PEORIA         CLOUDY    84  63  49 S22G28    29.78F HX  85
LACON*         CLOUDY    82  64  56 S13G21    29.77F HX  83
LINCOLN*       SUNNY     85  62  45 S17G28    29.83F HX  85
SPRINGFIELD    SUNNY     86  66  51 S18G28    29.84F HX  88
TAYLORVILLE    SUNNY     83  63  50 S18       29.87F HX  84
$$

ILZ033-039-045-046-055>057-062-063-290000-
EAST-CENTRAL ILLINOIS

CITY           SKY/WX    TMP DP  RH WIND       PRES   REMARKS
CHAMPAIGN      CLOUDY    83  59  44 S21G28    29.90F HX  83
RANTOUL*       CLOUDY    84  64  50 S17G24    29.90F HX  85
MATTOON        SUNNY     82  62  50 S13G24    29.92F HX  83
PARIS*         PTSUNNY   80  64  57 S15G21    29.94F HX  82
$$

ILZ079-100>102-290000-
SOUTHWEST ILLINOIS

CITY           SKY/WX    TMP DP  RH WIND       PRES   REMARKS
ALTON          MOSUNNY   84  66  54 S16G23    29.87F HX  86
BELLEVILLE     SUNNY     86  63  45 S17G26    29.89F HX  86
CAHOKIA*       SUNNY     88  61  40 S17       29.86F HX  88
SPARTA*        SUNNY     85  63  47 S15G22    29.92F HX  85
$$

ILZ064>066-069>071-074>076-080>082-084>086-088>090-092>094-290000-
SOUTH-CENTRAL ILLINOIS

CITY           SKY/WX    TMP DP  RH WIND       PRES   REMARKS
CARBONDALE     MOSUNNY   84  65  52 S17G24    29.94F HX  86
CAIRO*         MOSUNNY   84  65  51 S9        29.95F HX  85
EFFINGHAM*     SUNNY     83  64  51 SE14G20   29.93F HX  84
MARION         PTSUNNY   84  66  54 S12       29.95F HX  86
MT. VERNON     MOSUNNY   85  64  49 S17G23    29.93F HX  86
CENTRALIA*     MOSUNNY   85  64  48 S18G26    29.91F HX  87
SALEM*         MOSUNNY   84  62  46 S15G23    29.91F HX  85
METROPOLIS*    HVY RAIN  85  65  50 S10G16    29.97F HX  86
$$

ILZ067-068-072-073-078-083-087-091-290000-
SOUTHEAST ILLINOIS

CITY           SKY/WX    TMP DP  RH WIND       PRES   REMARKS
LAWRENCEVILLE  CLOUDY    82  63  52 S16       29.97F HX  83
FLORA*         MOSUNNY   86  64  48 S16G25    29.94F HX  87
FAIRFIELD*     MOSUNNY   83  65  54 S13       29.94S HX  85
HARRISBURG*    MOSUNNY   84  65  54 S14G22    29.96F HX  85
ROBINSON*      MOSUNNY   81  63  53 S17G23    29.95F HX  82
CARMI*         MOSUNNY   83  65  54 S12G20    29.96F HX  85
$$

ABBREVIATIONS USED IN REMARKS
   TC - TEMPERATURE IN CELSIUS
  WCI - WIND CHILL INDEX
   HX - HEAT INDEX
  VSB - VISIBILITY
$$




USA.gov is the U.S. government's official web portal to all federal, state and local government web resources and services.